Location: Madingley
(52.2167°N, 0.0500°E)
Time: 08:20:55
(UTC+00:00)

BREEZE-M DEB (TANK) - Pass Details

Date: 15 May 2026
Orbit: 262 x 12018 km, 49.5° (Epoch: 5 June)

Event Time Altitude Azimuth Distance (km) Brightness Sun altitude
Rises 21:16:39 0° 256° (WSW) 3,154 6.5 -10.8°
Reaches altitude 10° 21:19:48 10° 250° (WSW) 1,566 4.9 -11.1°
Maximum altitude 21:22:32 41° 177° (S) 451 1.5 -11.3°
Enters shadow 21:23:32 22° 117° (ESE) 664 2.2 -11.4°
